N614CB KVNY-KCRQ

Flight info

Callsign N614CB
Flight time 0h 25m
Altitude 10000
Route ADAMM3 ADAMM BALBO OCN
Aircraft SF50/L-SDGRWY/L

Departure

Time 2026-05-09 23:11
Airport Van Nuys Airport (KVNY)

Arrival

Time 2026-05-09 23:36
Airport McClellan-Palomar Airport (KCRQ)
Time Latitude Longitude Altitude Speed Heading
2026-05-09 22:56 34.21122 -118.48793 785 ft 0 kts 307°
2026-05-09 23:09 34.21140 -118.48809 785 ft 14 kts 330°
2026-05-09 23:09 34.21232 -118.48859 786 ft 15 kts 354°
2026-05-09 23:10 34.21375 -118.48874 789 ft 27 kts 355°
2026-05-09 23:10 34.21524 -118.48903 792 ft 13 kts 276°
2026-05-09 23:10 34.21525 -118.48918 792 ft 0 kts 270°
2026-05-09 23:10 34.21527 -118.48969 792 ft 16 kts 271°
2026-05-09 23:11 34.21512 -118.49072 791 ft 13 kts 207°
2026-05-09 23:11 34.21330 -118.49071 789 ft 52 kts 176°
2026-05-09 23:11 34.20743 -118.49024 811 ft 113 kts 177°
2026-05-09 23:11 34.19906 -118.48956 1403 ft 112 kts 178°
2026-05-09 23:12 34.19056 -118.48858 1809 ft 138 kts 176°
2026-05-09 23:12 34.18009 -118.48704 2167 ft 164 kts 174°
2026-05-09 23:12 34.16867 -118.48375 2692 ft 174 kts 150°
2026-05-09 23:12 34.16147 -118.47197 3114 ft 190 kts 117°
2026-05-09 23:13 34.15332 -118.45787 3129 ft 219 kts 134°
2026-05-09 23:13 34.14211 -118.44559 3737 ft 207 kts 140°
2026-05-09 23:13 34.13214 -118.43464 4744 ft 181 kts 137°
2026-05-09 23:13 34.12322 -118.42421 5443 ft 180 kts 137°
2026-05-09 23:14 34.11412 -118.41363 6010 ft 182 kts 137°
2026-05-09 23:14 34.10491 -118.40301 6592 ft 184 kts 137°
2026-05-09 23:14 34.09567 -118.39234 7024 ft 189 kts 137°
2026-05-09 23:14 34.08630 -118.38150 7945 ft 182 kts 137°
2026-05-09 23:15 34.07694 -118.37068 8541 ft 189 kts 137°
2026-05-09 23:15 34.06745 -118.35969 9224 ft 190 kts 137°
2026-05-09 23:15 34.05785 -118.34860 9888 ft 193 kts 137°
2026-05-09 23:15 34.04738 -118.33653 10011 ft 224 kts 137°
2026-05-09 23:16 34.03540 -118.32269 10017 ft 250 kts 137°
2026-05-09 23:16 34.02244 -118.30774 10020 ft 265 kts 137°
2026-05-09 23:16 34.00855 -118.29322 10013 ft 271 kts 146°
2026-05-09 23:16 33.99174 -118.28253 10011 ft 275 kts 158°
2026-05-09 23:17 33.97394 -118.27373 10017 ft 279 kts 158°
2026-05-09 23:17 33.95596 -118.26446 10016 ft 282 kts 157°
2026-05-09 23:17 33.93801 -118.25444 10014 ft 286 kts 155°
2026-05-09 23:17 33.92023 -118.24363 10017 ft 288 kts 153°
2026-05-09 23:18 33.90266 -118.23189 10017 ft 289 kts 150°
2026-05-09 23:18 33.88549 -118.21901 10017 ft 291 kts 148°
2026-05-09 23:18 33.86893 -118.20534 10015 ft 275 kts 145°
2026-05-09 23:18 33.85462 -118.19226 9999 ft 246 kts 142°
2026-05-09 23:19 33.84188 -118.17946 9998 ft 232 kts 140°
2026-05-09 23:19 33.83020 -118.16666 9999 ft 223 kts 137°
2026-05-09 23:19 33.81936 -118.15369 9997 ft 217 kts 135°
2026-05-09 23:19 33.80922 -118.14046 9997 ft 214 kts 132°
2026-05-09 23:20 33.79980 -118.12696 9998 ft 211 kts 129°
2026-05-09 23:21 33.75770 -118.05692 9998 ft 207 kts 125°
2026-05-09 23:21 33.74875 -118.04351 9999 ft 205 kts 136°
2026-05-09 23:21 33.73827 -118.03189 9999 ft 204 kts 138°
2026-05-09 23:22 33.72818 -118.01982 9999 ft 205 kts 135°
2026-05-09 23:22 33.71834 -118.00739 10000 ft 205 kts 134°
2026-05-09 23:22 33.70938 -117.99413 9998 ft 205 kts 124°
2026-05-09 23:22 33.70176 -117.97988 9998 ft 205 kts 124°
2026-05-09 23:23 33.69356 -117.96585 9998 ft 205 kts 127°
2026-05-09 23:23 33.68512 -117.95197 9999 ft 206 kts 127°
2026-05-09 23:23 33.67673 -117.93805 9999 ft 206 kts 127°
2026-05-09 23:23 33.66836 -117.92410 9999 ft 206 kts 126°
2026-05-09 23:24 33.65998 -117.91016 9999 ft 206 kts 127°
2026-05-09 23:24 33.65156 -117.89615 9999 ft 206 kts 127°
2026-05-09 23:24 33.64316 -117.88222 9999 ft 206 kts 127°
2026-05-09 23:24 33.63478 -117.86827 9999 ft 206 kts 127°
2026-05-09 23:25 33.62639 -117.85431 9999 ft 206 kts 127°
2026-05-09 23:25 33.61799 -117.84038 9999 ft 206 kts 127°
2026-05-09 23:25 33.60958 -117.82641 9999 ft 206 kts 127°
2026-05-09 23:25 33.60118 -117.81248 9999 ft 206 kts 126°
2026-05-09 23:26 33.59284 -117.79864 9999 ft 206 kts 127°
2026-05-09 23:26 33.53263 -117.69887 10000 ft 206 kts 127°
2026-05-09 23:26 33.39786 -117.47639 10000 ft 206 kts 127°
2026-05-09 23:26 33.34866 -117.39579 9999 ft 206 kts 127°
2026-05-09 23:27 33.33140 -117.36756 9635 ft 221 kts 127°
2026-05-09 23:27 33.31275 -117.33698 8996 ft 232 kts 127°
2026-05-09 23:27 33.29354 -117.30552 8349 ft 236 kts 127°
2026-05-09 23:27 33.27415 -117.27378 7699 ft 236 kts 127°
2026-05-09 23:28 33.26329 -117.25600 7317 ft 237 kts 127°
2026-05-09 23:28 33.25354 -117.24008 6968 ft 238 kts 127°
2026-05-09 23:28 33.24377 -117.22413 6616 ft 237 kts 127°
2026-05-09 23:28 33.23402 -117.20822 6267 ft 237 kts 127°
2026-05-09 23:29 33.22430 -117.19232 5918 ft 237 kts 127°
2026-05-09 23:29 33.21467 -117.17665 5571 ft 236 kts 127°
2026-05-09 23:29 33.20495 -117.16078 5224 ft 236 kts 127°
2026-05-09 23:29 33.19522 -117.14496 4872 ft 236 kts 127°
2026-05-09 23:30 33.18552 -117.12915 4521 ft 236 kts 127°
2026-05-09 23:30 33.17585 -117.11337 4171 ft 235 kts 127°
2026-05-09 23:30 33.16616 -117.09761 3823 ft 235 kts 127°
2026-05-09 23:30 33.15646 -117.08195 3481 ft 233 kts 129°
2026-05-09 23:31 33.14354 -117.07184 3432 ft 219 kts 168°
2026-05-09 23:31 33.12960 -117.07450 3434 ft 195 kts 213°
2026-05-09 23:31 33.12224 -117.08660 3435 ft 174 kts 249°
2026-05-09 23:31 33.11830 -117.09957 3433 ft 159 kts 253°
2026-05-09 23:32 33.11915 -117.11202 3436 ft 149 kts 290°
2026-05-09 23:32 33.12276 -117.12336 3436 ft 144 kts 290°
2026-05-09 23:32 33.12727 -117.13366 3436 ft 138 kts 301°
2026-05-09 23:32 33.13209 -117.14310 3434 ft 129 kts 300°
2026-05-09 23:33 33.13662 -117.15202 3436 ft 123 kts 300°
2026-05-09 23:33 33.14096 -117.16055 3433 ft 118 kts 300°
2026-05-09 23:33 33.14400 -117.16972 3272 ft 123 kts 274°
2026-05-09 23:33 33.14335 -117.17955 3121 ft 116 kts 263°
2026-05-09 23:34 33.14241 -117.18910 2854 ft 119 kts 262°
2026-05-09 23:34 33.14107 -117.19896 2584 ft 121 kts 261°
2026-05-09 23:34 33.13962 -117.20897 2309 ft 123 kts 260°
2026-05-09 23:34 33.13811 -117.21902 2037 ft 123 kts 259°
2026-05-09 23:35 33.13645 -117.22904 1764 ft 123 kts 259°
2026-05-09 23:35 33.13484 -117.23903 1503 ft 117 kts 260°
2026-05-09 23:35 33.13348 -117.24718 1282 ft 93 kts 257°
2026-05-09 23:35 33.13220 -117.25448 944 ft 87 kts 259°
2026-05-09 23:36 33.13125 -117.26144 638 ft 82 kts 261°
2026-05-09 23:36 33.13027 -117.26758 446 ft 69 kts 257°
2026-05-09 23:36 33.12936 -117.27302 334 ft 62 kts 260°
2026-05-09 23:36 33.12878 -117.27665 325 ft 31 kts 259°
2026-05-09 23:37 33.12844 -117.27862 327 ft 16 kts 245°
2026-05-09 23:37 33.12788 -117.27828 326 ft 12 kts 106°
2026-05-09 23:37 33.12789 -117.27745 326 ft 8 kts 73°
2026-05-09 23:37 33.12802 -117.27672 326 ft 9 kts 79°
2026-05-09 23:38 33.12775 -117.27628 325 ft 6 kts 168°
2026-05-09 23:38 33.12730 -117.27611 325 ft 7 kts 113°
2026-05-09 23:38 33.12729 -117.27609 325 ft 0 kts 107°